When you browse on this site, cookies collect data to enhance your experience and personalize the content and advertising you see.
Visit our Privacy Policy to learn more. By continuing to use the site, you agree to this use of cookies and data.
  • En España
  • Lista de países
  • Para 7 días
  • Temperatura del agua
  • El tiempo en el mapa
  • Informadores
  • user-avatar
    Iniciar sesión

    Tiempo cada hora Lincoln

    Hoy, 23 Septiembre, Lunes

    Tiempo Temperatura Precipitaciones Viento Presión Humedad
    00:00 +14°C° 0 mm 3 mps 749 mmHg 90%
    01:00 +13°C° 0 mm 3 mps 749 mmHg 92%
    02:00 +13°C° 0 mm 3 mps 749 mmHg 93%
    03:00 +12°C° 0 mm 3 mps 749 mmHg 94%
    04:00 +12°C° 0 mm 3 mps 749 mmHg 95%
    05:00 +12°C° 0 mm 3 mps 750 mmHg 95%
    06:00 +12°C° 0 mm 3 mps 750 mmHg 95%
    07:00 +13°C° 0 mm 3 mps 751 mmHg 87%
    08:00 +14°C° 0 mm 4 mps 751 mmHg 80%
    09:00 +15°C° 0 mm 4 mps 751 mmHg 72%
    10:00 +16°C° 0 mm 5 mps 751 mmHg 67%
    11:00 +17°C° 0 mm 5 mps 751 mmHg 62%
    12:00 +19°C° 0 mm 6 mps 752 mmHg 57%
    13:00 +19°C° 0 mm 5 mps 752 mmHg 56%
    14:00 +19°C° 0 mm 5 mps 751 mmHg 55%
    15:00 +20°C° 0 mm 5 mps 751 mmHg 54%
    16:00 +19°C° 0 mm 5 mps 751 mmHg 60%
    17:00 +17°C° 0 mm 5 mps 751 mmHg 66%
    18:00 +16°C° 0 mm 5 mps 751 mmHg 72%
    19:00 +16°C° 0.1 mm 5 mps 751 mmHg 75%
    20:00 +15°C° 0.1 mm 6 mps 751 mmHg 78%
    21:00 +15°C° 0.1 mm 7 mps 750 mmHg 81%
    22:00 +15°C° 0 mm 6 mps 750 mmHg 83%
    23:00 +15°C° 0 mm 6 mps 750 mmHg 84%

    Mañana, 24 Septiembre, Martes

    Tiempo Temperatura Precipitaciones Viento Presión Humedad
    00:00 +15°C° 0 mm 5 mps 749 mmHg 86%
    01:00 +15°C° 0.1 mm 5 mps 749 mmHg 87%
    02:00 +16°C° 0.1 mm 5 mps 748 mmHg 88%
    03:00 +17°C° 0.1 mm 4 mps 748 mmHg 90%
    04:00 +17°C° 0.2 mm 4 mps 747 mmHg 91%
    05:00 +17°C° 0.2 mm 4 mps 746 mmHg 92%
    06:00 +17°C° 0.2 mm 4 mps 746 mmHg 93%
    07:00 +16°C° 0.7 mm 5 mps 745 mmHg 91%
    08:00 +17°C° 0.7 mm 5 mps 745 mmHg 88%
    09:00 +17°C° 0.7 mm 6 mps 744 mmHg 86%
    10:00 +16°C° 1.9 mm 6 mps 744 mmHg 86%
    11:00 +16°C° 1.9 mm 6 mps 744 mmHg 87%
    12:00 +15°C° 1.9 mm 6 mps 743 mmHg 88%
    13:00 +15°C° 0.4 mm 6 mps 743 mmHg 87%
    14:00 +15°C° 0.4 mm 6 mps 743 mmHg 85%
    15:00 +15°C° 0.4 mm 6 mps 743 mmHg 84%
    16:00 +15°C° 0.1 mm 5 mps 743 mmHg 84%
    17:00 +15°C° 0.1 mm 4 mps 743 mmHg 85%
    18:00 +16°C° 0.1 mm 3 mps 743 mmHg 85%
    19:00 +14°C° 0 mm 3 mps 743 mmHg 86%
    20:00 +13°C° 0 mm 3 mps 744 mmHg 87%
    21:00 +13°C° 0 mm 4 mps 744 mmHg 88%
    22:00 +13°C° 0.1 mm 4 mps 744 mmHg 88%
    23:00 +13°C° 0.1 mm 4 mps 744 mmHg 89%

    Pasado mañana, 25 Septiembre, Miércoles

    Tiempo Temperatura Precipitaciones Viento Presión Humedad
    00:00 +13°C° 0.1 mm 4 mps 744 mmHg 90%
    01:00 +13°C° 0 mm 4 mps 743 mmHg 90%
    02:00 +13°C° 0 mm 4 mps 743 mmHg 90%
    03:00 +13°C° 0 mm 4 mps 743 mmHg 91%
    04:00 +13°C° 0 mm 4 mps 743 mmHg 92%
    05:00 +12°C° 0 mm 3 mps 742 mmHg 93%
    06:00 +12°C° 0 mm 3 mps 742 mmHg 94%
    07:00 +14°C° 0 mm 2 mps 742 mmHg 90%
    08:00 +15°C° 0 mm 2 mps 743 mmHg 87%
    09:00 +16°C° 0 mm 1 mps 743 mmHg 83%
    10:00 +18°C° 0 mm 1 mps 743 mmHg 79%
    11:00 +19°C° 0 mm 1 mps 743 mmHg 74%
    12:00 +19°C° 0 mm 1 mps 744 mmHg 70%
    13:00 +20°C° 0.1 mm 1 mps 744 mmHg 69%
    14:00 +20°C° 0.1 mm 1 mps 744 mmHg 67%
    15:00 +19°C° 0.1 mm 2 mps 744 mmHg 66%
    16:00 +18°C° 0.1 mm 2 mps 744 mmHg 70%
    17:00 +17°C° 0.1 mm 2 mps 744 mmHg 75%
    18:00 +17°C° 0.1 mm 2 mps 745 mmHg 80%
    19:00 +16°C° 0 mm 2 mps 745 mmHg 83%
    20:00 +14°C° 0 mm 3 mps 745 mmHg 86%
    21:00 +14°C° 0 mm 3 mps 745 mmHg 88%
    22:00 +14°C° 0.2 mm 4 mps 745 mmHg 89%
    23:00 +14°C° 0.2 mm 4 mps 744 mmHg 90%

    26 Septiembre, Jueves

    Tiempo Temperatura Precipitaciones Viento Presión Humedad
    00:00 +14°C° 0.2 mm 5 mps 744 mmHg 90%
    01:00 +15°C° 0.6 mm 5 mps 744 mmHg 89%
    02:00 +15°C° 0.6 mm 6 mps 744 mmHg 88%
    03:00 +16°C° 0.6 mm 6 mps 743 mmHg 87%
    04:00 +16°C° 0 mm 6 mps 743 mmHg 88%
    05:00 +15°C° 0 mm 6 mps 743 mmHg 88%
    06:00 +15°C° 0 mm 6 mps 743 mmHg 89%
    07:00 +15°C° 0.2 mm 6 mps 743 mmHg 82%
    08:00 +16°C° 0.2 mm 7 mps 744 mmHg 74%
    09:00 +16°C° 0.2 mm 8 mps 744 mmHg 67%
    10:00 +17°C° 0 mm 8 mps 744 mmHg 64%
    11:00 +17°C° 0 mm 7 mps 745 mmHg 62%
    12:00 +18°C° 0 mm 7 mps 745 mmHg 59%
    13:00 +17°C° 0.1 mm 7 mps 745 mmHg 61%
    14:00 +17°C° 0.1 mm 6 mps 745 mmHg 64%
    15:00 +16°C° 0.1 mm 6 mps 745 mmHg 66%
    16:00 +16°C° 0 mm 6 mps 745 mmHg 68%
    17:00 +15°C° 0 mm 6 mps 745 mmHg 71%
    18:00 +15°C° 0 mm 5 mps 745 mmHg 74%
    19:00 +14°C° 0 mm 5 mps 745 mmHg 75%
    20:00 +14°C° 0 mm 6 mps 746 mmHg 77%
    21:00 +14°C° 0 mm 6 mps 746 mmHg 78%
    22:00 +13°C° 0 mm 6 mps 746 mmHg 79%
    23:00 +13°C° 0 mm 6 mps 746 mmHg 80%

    27 Septiembre, Viernes

    Tiempo Temperatura Precipitaciones Viento Presión Humedad
    00:00 +13°C° 0 mm 5 mps 746 mmHg 81%
    01:00 +13°C° 0 mm 5 mps 746 mmHg 81%
    02:00 +13°C° 0 mm 5 mps 746 mmHg 81%
    03:00 +12°C° 0 mm 5 mps 746 mmHg 81%
    04:00 +12°C° 0 mm 5 mps 746 mmHg 82%
    05:00 +12°C° 0 mm 5 mps 745 mmHg 82%
    06:00 +12°C° 0 mm 5 mps 745 mmHg 82%
    07:00 +13°C° 0 mm 6 mps 745 mmHg 78%
    08:00 +14°C° 0 mm 6 mps 745 mmHg 74%
    09:00 +15°C° 0 mm 7 mps 745 mmHg 70%
    10:00 +15°C° 0.2 mm 7 mps 745 mmHg 68%
    11:00 +16°C° 0.2 mm 7 mps 745 mmHg 65%
    12:00 +16°C° 0.2 mm 8 mps 745 mmHg 62%
    13:00 +16°C° 0.2 mm 8 mps 745 mmHg 64%
    14:00 +16°C° 0.2 mm 8 mps 744 mmHg 65%
    15:00 +15°C° 0.2 mm 8 mps 744 mmHg 67%
    16:00 +15°C° 0.2 mm 7 mps 744 mmHg 71%
    17:00 +14°C° 0.2 mm 7 mps 744 mmHg 75%
    18:00 +12°C° 0.2 mm 7 mps 744 mmHg 79%
    19:00 +13°C° 1.2 mm 6 mps 744 mmHg 81%
    20:00 +13°C° 1.2 mm 6 mps 744 mmHg 83%
    21:00 +12°C° 1.2 mm 5 mps 744 mmHg 85%
    22:00 +12°C° 0 mm 5 mps 744 mmHg 85%
    23:00 +10°C° 0 mm 5 mps 744 mmHg 85%

    28 Septiembre, Sábado

    Tiempo Temperatura Precipitaciones Viento Presión Humedad
    00:00 +10°C° 0 mm 5 mps 744 mmHg 86%
    01:00 +10°C° 0 mm 5 mps 745 mmHg 86%
    02:00 +9°C° 0 mm 5 mps 745 mmHg 86%
    03:00 +9°C° 0 mm 5 mps 745 mmHg 86%
    04:00 +9°C° 0 mm 5 mps 745 mmHg 86%
    05:00 +9°C° 0 mm 5 mps 745 mmHg 86%
    06:00 +8°C° 0 mm 5 mps 745 mmHg 86%
    07:00 +9°C° 0 mm 6 mps 745 mmHg 82%
    08:00 +10°C° 0 mm 7 mps 746 mmHg 77%
    09:00 +12°C° 0 mm 7 mps 746 mmHg 72%
    10:00 +12°C° 0 mm 7 mps 746 mmHg 68%
    11:00 +14°C° 0 mm 7 mps 746 mmHg 64%
    12:00 +15°C° 0 mm 8 mps 747 mmHg 60%
    13:00 +15°C° 0 mm 7 mps 747 mmHg 59%
    14:00 +16°C° 0 mm 7 mps 747 mmHg 58%
    15:00 +16°C° 0 mm 7 mps 746 mmHg 56%
    16:00 +15°C° 0 mm 6 mps 747 mmHg 61%
    17:00 +13°C° 0 mm 5 mps 747 mmHg 66%
    18:00 +12°C° 0 mm 3 mps 747 mmHg 71%
    19:00 +12°C° 0 mm 3 mps 747 mmHg 74%
    20:00 +11°C° 0 mm 3 mps 748 mmHg 77%
    21:00 +10°C° 0 mm 3 mps 748 mmHg 80%
    22:00 +10°C° 0 mm 3 mps 748 mmHg 82%
    23:00 +10°C° 0 mm 3 mps 748 mmHg 85%
    Mostrar más